N8AAU Weather Reports


Display with metric or nautical units.
time (UTC)temp
F
wind
direction
speed
MPH
gust
MPH
rain 1hr
in
rain 24hr
in
rain mn
in
humidity
%
barometer
mb
20260508204505 64 183 0.0 4.0 0.00 0.06 0.06 37 1006.5
20260508204005 63 5 0.0 4.0 0.00 0.06 0.06 39 1006.6
20260508203504 63 355 0.0 0.0 0.00 0.06 0.06 39 1006.6
20260508202005 64 221 3.0 14.0 0.00 0.06 0.06 36 1007.1
20260508201505 64 183 1.0 14.0 0.00 0.06 0.06 37 1007.2
20260508201004 64 208 0.0 11.0 0.00 0.06 0.06 36 1007.3
20260508200504 64 219 0.0 3.0 0.00 0.06 0.06 36 1007.2
20260508195505 64 200 2.0 16.0 0.00 0.06 0.06 36 1007.5
20260508195005 64 225 1.0 10.0 0.00 0.06 0.06 35 1007.5
20260508194505 64 207 0.0 3.0 0.00 0.06 0.06 34 1007.7
20260508194005 64 239 1.0 15.0 0.00 0.06 0.06 36 1007.7
20260508193504 64 171 1.0 15.0 0.00 0.06 0.06 33 1007.8
20260508193005 64 216 2.0 15.0 0.00 0.06 0.06 35 1007.8
20260508192005 64 225 0.0 9.0 0.00 0.06 0.06 32 1008.1
20260508191504 64 263 1.0 8.0 0.00 0.06 0.06 32 1008.1
20260508191004 64 227 1.0 13.0 0.00 0.06 0.06 31 1008.0
20260508190505 64 237 1.0 13.0 0.00 0.06 0.06 31 1008.1
20260508185504 64 291 0.0 2.0 0.00 0.06 0.06 33 1008.3
20260508184505 64 300 0.0 3.0 0.00 0.06 0.06 33 1008.5
20260508184005 63 229 0.0 4.0 0.00 0.06 0.06 33 1008.4
20260508183006 63 231 0.0 1.0 0.00 0.06 0.06 34 1008.5
20260508182504 63 323 0.0 1.0 0.00 0.06 0.06 34 1008.6
20260508181505 62 191 0.0 0.0 0.00 0.06 0.06 35 1008.9
20260508181004 62 35 0.0 2.0 0.00 0.06 0.06 36 1008.9
20260508180505 62 234 0.0 4.0 0.00 0.06 0.06 35 1009.0
20260508180006 61 155 0.0 4.0 0.00 0.06 0.06 37 1009.0
20260508175004 61 252 0.0 11.0 0.00 0.06 0.06 38 1009.2
20260508174505 60 174 0.0 3.0 0.00 0.06 0.06 39 1009.3
20260508174004 60 248 0.0 4.0 0.00 0.06 0.06 40 1009.5
20260508173504 60 233 1.0 6.0 0.00 0.06 0.06 38 1009.5
20260508173005 60 210 1.0 11.0 0.00 0.06 0.06 37 1009.7
20260508171505 60 215 0.0 7.0 0.00 0.06 0.06 37 1009.8
20260508171004 60 216 0.0 7.0 0.00 0.06 0.06 39 1009.8
20260508170504 60 257 1.0 7.0 0.00 0.06 0.06 37 1009.9
20260508170006 59 186 2.0 15.0 0.00 0.06 0.06 39 1010.0
20260508165504 59 201 1.0 15.0 0.00 0.06 0.06 39 1010.1
20260508164004 59 17 0.0 0.0 0.00 0.06 0.06 40 1010.3
20260508163005 58 165 0.0 0.0 0.00 0.06 0.06 42 1010.7
20260508162504 58 196 0.0 0.0 0.00 0.06 0.06 43 1010.7
20260508162004 58 212 0.0 0.0 0.00 0.06 0.06 43 1010.7
20260508161004 58 215 0.0 6.0 0.00 0.06 0.06 43 1010.6
20260508160005 58 264 0.0 1.0 0.00 0.06 0.06 43 1010.7
20260508155504 57 271 0.0 1.0 0.00 0.06 0.06 44 1010.8
20260508154505 57 290 0.0 6.0 0.00 0.06 0.06 43 1010.8
20260508154004 57 261 0.0 4.0 0.00 0.06 0.06 44 1010.9
20260508153005 56 221 0.0 10.0 0.00 0.06 0.06 44 1010.8
20260508152504 56 327 0.0 0.0 0.00 0.06 0.06 49 1010.8
20260508152005 56 18 0.0 0.0 0.00 0.06 0.06 48 1010.9
20260508151505 55 298 0.0 4.0 0.00 0.06 0.06 48 1011.0
20260508151004 55 232 0.0 4.0 0.00 0.06 0.06 52 1011.0
20260508150504 55 42 0.0 0.0 0.00 0.06 0.06 51 1011.0
20260508150005 55 202 0.0 0.0 0.00 0.06 0.06 52 1011.1
20260508145504 54 70 0.0 0.0 0.00 0.06 0.06 52 1011.1
20260508145004 54 28 0.0 0.0 0.00 0.06 0.06 51 1011.0
20260508144004 54 38 0.0 1.0 0.00 0.06 0.06 54 1011.3
20260508143504 53 327 0.0 1.0 0.00 0.06 0.06 57 1011.3
20260508143005 53 196 0.0 0.0 0.00 0.06 0.06 58 1011.3
20260508142504 52 142 0.0 0.0 0.00 0.06 0.06 64 1011.4
20260508142005 52 360 0.0 1.0 0.00 0.06 0.06 64 1011.4
20260508141504 52 232 0.0 0.0 0.00 0.06 0.06 65 1011.4
20260508140006 51 217 0.0 0.0 0.00 0.06 0.06 69 1011.5
20260508135004 50 217 0.0 2.0 0.00 0.06 0.06 70 1011.6
20260508134004 49 213 0.0 0.0 0.00 0.06 0.06 76 1011.6
20260508133504 48 216 0.0 0.0 0.00 0.06 0.06 77 1011.7
20260508133005 48 211 0.0 0.0 0.00 0.06 0.06 78 1011.6
20260508132504 47 180 0.0 0.0 0.00 0.06 0.06 80 1011.7
20260508132004 47 195 0.0 0.0 0.00 0.06 0.06 79 1011.7
20260508131504 46 195 0.0 0.0 0.00 0.06 0.06 81 1011.6
20260508131004 45 226 0.0 0.0 0.00 0.06 0.06 83 1011.7
20260508130504 45 229 0.0 0.0 0.00 0.06 0.06 84 1011.7
20260508130005 44 229 0.0 0.0 0.00 0.06 0.06 85 1011.7
20260508125504 44 229 0.0 0.0 0.00 0.06 0.06 86 1011.6
20260508125004 43 229 0.0 0.0 0.00 0.06 0.06 88 1011.7
20260508124504 43 229 0.0 0.0 0.00 0.06 0.06 89 1011.7
20260508123004 42 229 0.0 0.0 0.00 0.06 0.06 91 1011.7
20260508122504 42 229 0.0 0.0 0.00 0.06 0.06 91 1011.7
20260508122005 42 229 0.0 0.0 0.00 0.06 0.06 91 1011.7
20260508121004 41 229 0.0 0.0 0.00 0.06 0.06 91 1011.5
20260508120504 41 229 0.0 0.0 0.00 0.06 0.06 91 1011.5
20260508115504 40 229 0.0 0.0 0.00 0.06 0.06 91 1011.4
20260508115004 40 229 0.0 0.0 0.00 0.06 0.06 91 1011.3
20260508114505 40 229 0.0 0.0 0.00 0.06 0.06 91 1011.3
20260508114005 40 229 0.0 0.0 0.00 0.06 0.06 91 1011.2
20260508113504 39 229 0.0 0.0 0.00 0.06 0.06 91 1011.1
20260508113005 39 229 0.0 0.0 0.01 0.06 0.06 90 1011.1
20260508112504 39 229 0.0 0.0 0.01 0.06 0.06 90 1011.1
20260508112005 39 229 0.0 0.0 0.01 0.06 0.06 90 1011.0
20260508110504 39 229 0.0 0.0 0.01 0.06 0.06 89 1010.9
20260508110005 39 229 0.0 0.0 0.01 0.06 0.06 89 1010.9
20260508105504 39 229 0.0 0.0 0.01 0.06 0.06 89 1010.9
20260508105005 39 229 0.0 0.0 0.01 0.06 0.06 89 1010.9
20260508104504 39 229 0.0 0.0 0.01 0.06 0.06 89 1010.9
20260508103504 39 229 0.0 0.0 0.01 0.06 0.06 89 1010.9
20260508103004 39 229 0.0 0.0 0.00 0.05 0.05 89 1010.9
20260508102504 39 229 0.0 0.0 0.00 0.05 0.05 89 1010.9
20260508101505 39 229 0.0 0.0 0.00 0.05 0.05 89 1010.9
20260508101004 39 229 0.0 0.0 0.00 0.05 0.05 89 1010.9
20260508100504 40 229 0.0 0.0 0.00 0.05 0.05 89 1010.9
20260508100005 40 229 0.0 0.0 0.00 0.05 0.05 89 1010.9
20260508095504 40 229 0.0 0.0 0.00 0.05 0.05 89 1010.8
20260508094505 40 229 0.0 0.0 0.00 0.05 0.05 89 1011.0
20260508094003 40 229 0.0 0.0 0.00 0.05 0.05 88 1010.9
20260508093459 40 229 0.0 0.0 0.00 0.05 0.05 88 1011.0
20260508093004 41 229 0.0 0.0 0.00 0.05 0.05 89 1011.0
20260508092458 41 229 0.0 0.0 0.00 0.05 0.05 89 1011.0
20260508091959 41 229 0.0 0.0 0.00 0.05 0.05 89 1011.0
20260508091459 41 229 0.0 0.0 0.00 0.05 0.05 89 1010.9
20260508090959 41 229 0.0 0.0 0.00 0.05 0.05 89 1010.9
20260508090459 41 229 0.0 0.0 0.00 0.05 0.05 89 1010.9
20260508090005 42 229 0.0 0.0 0.00 0.05 0.05 89 1011.0
20260508085500 42 229 0.0 0.0 0.00 0.05 0.05 89 1011.0
20260508085003 42 229 0.0 0.0 0.00 0.05 0.05 89 1011.0
20260508084504 42 229 0.0 0.0 0.00 0.05 0.05 89 1011.0
20260508084000 42 229 0.0 0.0 0.00 0.05 0.05 89 1010.9
20260508083500 42 238 0.0 0.0 0.00 0.05 0.05 89 1010.9
20260508083004 42 238 0.0 0.0 0.00 0.05 0.05 89 1011.0
20260508082504 42 238 0.0 0.0 0.00 0.05 0.05 89 1010.9
20260508082000 42 238 0.0 0.0 0.00 0.05 0.05 89 1010.9
20260508081500 42 238 0.0 0.0 0.00 0.05 0.05 89 1010.9
20260508081004 42 238 0.0 0.0 0.00 0.05 0.05 89 1011.0
20260508080504 42 238 0.0 0.0 0.00 0.05 0.05 89 1011.0
20260508080004 42 238 0.0 0.0 0.00 0.05 0.05 89 1011.1
20260508075459 43 238 0.0 0.0 0.00 0.05 0.05 89 1011.1
20260508074958 43 238 0.0 0.0 0.00 0.05 0.05 89 1011.1
20260508074500 43 238 0.0 0.0 0.00 0.05 0.05 89 1011.0
20260508073958 43 238 0.0 0.0 0.00 0.05 0.05 89 1011.0
20260508073459 43 238 0.0 0.0 0.00 0.05 0.05 88 1011.1
20260508072959 43 238 0.0 0.0 0.00 0.05 0.05 88 1011.0
20260508072504 43 238 0.0 0.0 0.00 0.05 0.05 88 1011.1
20260508071959 43 238 0.0 0.0 0.00 0.05 0.05 88 1011.1
20260508071504 43 238 0.0 0.0 0.00 0.05 0.05 88 1011.0
20260508070959 43 238 0.0 0.0 0.00 0.05 0.05 88 1011.1
20260508070459 43 238 0.0 0.0 0.00 0.05 0.05 88 1011.1
20260508070005 43 238 0.0 0.0 0.00 0.05 0.05 88 1011.1
20260508065459 43 238 0.0 0.0 0.00 0.05 0.05 88 1011.0
20260508064958 43 238 0.0 0.0 0.00 0.05 0.05 87 1011.0
20260508064500 43 238 0.0 0.0 0.00 0.05 0.05 87 1011.0
20260508063959 43 238 0.0 0.0 0.00 0.05 0.05 87 1011.1
20260508062959 43 238 0.0 0.0 0.00 0.05 0.05 86 1011.0
20260508062500 43 238 0.0 0.0 0.00 0.05 0.05 86 1011.0
20260508061959 43 238 0.0 0.0 0.00 0.05 0.05 86 1011.0
20260508060958 43 238 0.0 0.0 0.00 0.05 0.05 85 1011.0
20260508060458 44 238 0.0 0.0 0.00 0.05 0.05 85 1011.1
20260508060000 44 238 0.0 0.0 0.00 0.05 0.05 85 1011.1
20260508055500 44 238 0.0 0.0 0.00 0.05 0.05 85 1011.3
20260508054459 44 238 0.0 0.0 0.00 0.05 0.05 84 1011.1
20260508053959 44 238 0.0 0.0 0.01 0.05 0.05 83 1011.1
20260508053459 44 238 0.0 0.0 0.01 0.05 0.05 83 1011.1
20260508053004 45 238 0.0 0.0 0.01 0.05 0.05 83 1011.2
20260508052458 45 238 0.0 0.0 0.03 0.05 0.05 83 1011.2
20260508051459 45 238 0.0 0.0 0.05 0.05 0.05 82 1011.2
20260508050958 45 238 0.0 0.0 0.05 0.05 0.05 81 1011.2
20260508050459 45 238 0.0 0.0 0.05 0.05 0.05 81 1011.3
20260508045959 46 238 0.0 0.0 0.05 0.05 0.05 80 1011.4
20260508045459 46 238 0.0 0.0 0.05 0.05 0.05 79 1011.4
20260508044959 46 238 0.0 0.0 0.05 0.05 0.05 79 1011.4
20260508043959 47 238 0.0 0.0 0.04 0.04 0.04 76 1011.6
20260508043459 48 238 0.0 0.0 0.04 0.04 0.04 74 1011.7
20260508043000 49 275 1.0 5.0 0.03 0.03 0.03 72 1011.9
20260508042459 49 297 1.0 8.0 0.01 0.01 0.01 69 1011.8
20260508041959 50 294 0.0 8.0 0.00 0.00 0.00 63 1011.6
20260508041500 50 309 0.0 0.0 0.00 0.00 0.00 57 1011.4
20260508041005 50 218 0.0 0.0 0.00 0.00 0.00 56 1011.2
20260508040504 50 218 0.0 0.0 0.00 0.00 0.00 56 1011.2
20260508040005 50 218 0.0 0.0 0.00 0.00 0.00 55 1011.0
20260508035505 50 216 0.0 4.0 0.00 0.00 0.00 55 1010.9
20260508035005 50 232 0.0 4.0 0.00 0.00 0.00 54 1011.0
20260508034505 50 219 0.0 0.0 0.00 0.00 0.00 54 1010.9
20260508034004 50 198 0.0 0.0 0.00 0.00 0.00 54 1011.0
20260508033505 50 223 0.0 0.0 0.00 0.00 0.00 53 1011.0
20260508033005 50 205 0.0 0.0 0.00 0.00 0.00 53 1011.0
20260508032004 50 199 0.0 0.0 0.00 0.00 0.00 51 1011.1
20260508031505 50 200 0.0 0.0 0.00 0.00 0.00 51 1011.3
20260508031004 50 199 0.0 0.0 0.00 0.00 0.00 51 1011.3
20260508030005 50 203 0.0 0.0 0.00 0.00 0.00 51 1011.4
20260508025505 50 221 0.0 0.0 0.00 0.00 0.00 51 1011.4
20260508025004 50 257 0.0 0.0 0.00 0.00 0.00 50 1011.4
20260508024004 50 271 0.0 0.0 0.00 0.00 0.00 50 1011.2
20260508023504 50 271 0.0 0.0 0.00 0.00 0.00 50 1011.1
20260508022505 50 273 0.0 0.0 0.00 0.00 0.00 50 1011.1
20260508022004 50 273 0.0 0.0 0.00 0.00 0.00 50 1011.1
20260508021505 50 273 0.0 0.0 0.00 0.00 0.00 50 1011.1
20260508021004 50 273 0.0 0.0 0.00 0.00 0.00 50 1011.1
20260508020005 51 271 0.0 0.0 0.00 0.00 0.00 49 1011.0
20260508015505 51 271 0.0 0.0 0.00 0.00 0.00 50 1011.1
20260508015004 51 271 0.0 0.0 0.00 0.00 0.00 49 1011.1
20260508014506 51 271 0.0 0.0 0.00 0.00 0.00 49 1011.0
20260508013504 51 271 0.0 0.0 0.00 0.00 0.00 49 1011.0
20260508013005 51 271 0.0 0.0 0.00 0.00 0.00 48 1010.9
20260508012504 51 270 0.0 0.0 0.00 0.00 0.00 49 1010.8
20260508012004 51 294 0.0 0.0 0.00 0.00 0.00 48 1010.9
20260508011505 51 252 0.0 0.0 0.00 0.00 0.00 48 1010.9
20260508011004 52 248 0.0 2.0 0.00 0.00 0.00 47 1010.9
20260508010005 52 272 0.0 7.0 0.00 0.00 0.00 44 1010.9
20260508005504 52 219 0.0 6.0 0.00 0.00 0.00 42 1010.8
20260508005005 52 268 0.0 0.0 0.00 0.00 0.00 42 1010.6
20260508004504 52 290 0.0 2.0 0.00 0.00 0.00 42 1010.4
20260508004005 53 265 0.0 2.0 0.00 0.00 0.00 42 1010.3
20260508003504 53 271 0.0 0.0 0.00 0.00 0.00 42 1010.2
20260508003005 53 254 0.0 0.0 0.00 0.00 0.00 41 1010.3
20260508002504 53 247 0.0 6.0 0.00 0.00 0.00 41 1010.3
20260508002005 53 297 0.0 5.0 0.00 0.00 0.00 41 1010.3
20260508001504 53 288 0.0 5.0 0.00 0.00 0.00 42 1010.3
20260508001004 53 231 0.0 0.0 0.00 0.00 0.00 40 1010.3
20260508000504 53 294 0.0 5.0 0.00 0.00 0.00 40 1010.2
20260508000006 54 278 0.0 10.0 0.00 0.00 0.00 40 1010.2
20260507235505 54 246 0.0 10.0 0.00 0.00 0.00 40 1010.2
20260507235004 54 268 0.0 2.0 0.00 0.00 0.00 39 1010.2
20260507234505 54 229 0.0 0.0 0.00 0.00 0.00 40 1010.2
20260507234004 54 232 0.0 9.0 0.00 0.00 0.00 40 1010.3
20260507233504 54 240 0.0 9.0 0.00 0.00 0.00 39 1010.3
20260507233005 54 259 0.0 1.0 0.00 0.00 0.00 39 1010.2
20260507232504 54 218 0.0 4.0 0.00 0.00 0.00 39 1010.2
20260507232004 55 233 0.0 6.0 0.00 0.00 0.00 38 1010.2
20260507231505 55 246 0.0 6.0 0.00 0.00 0.00 38 1010.2
20260507230504 55 265 0.0 9.0 0.00 0.00 0.00 38 1010.3
20260507230006 55 273 1.0 9.0 0.00 0.00 0.00 39 1010.3
20260507225504 55 279 0.0 9.0 0.00 0.00 0.00 38 1010.3
20260507225005 55 294 0.0 7.0 0.00 0.00 0.00 39 1010.4
20260507224505 55 250 1.0 7.0 0.00 0.00 0.00 38 1010.4
20260507224004 55 295 1.0 11.0 0.00 0.00 0.00 37 1010.5
20260507223504 55 281 1.0 12.0 0.00 0.00 0.00 38 1010.5
20260507223005 55 256 1.0 10.0 0.00 0.00 0.00 37 1010.5
20260507222504 55 284 1.0 10.0 0.00 0.00 0.00 38 1010.5
20260507221505 55 274 0.0 5.0 0.00 0.00 0.00 38 1010.6
20260507221005 55 306 0.0 5.0 0.00 0.00 0.00 38 1010.5
20260507220504 55 304 0.0 0.0 0.00 0.00 0.00 38 1010.5
20260507220005 55 300 0.0 4.0 0.00 0.00 0.00 38 1010.5
20260507215504 55 284 0.0 6.0 0.00 0.00 0.00 37 1010.5
20260507215005 56 360 0.0 6.0 0.00 0.00 0.00 38 1010.4
20260507214004 56 215 0.0 6.0 0.00 0.00 0.00 36 1010.4
20260507213505 57 322 0.0 5.0 0.00 0.00 0.00 35 1010.4
20260507213005 57 316 1.0 9.0 0.00 0.00 0.00 37 1010.3
20260507212504 56 232 2.0 13.0 0.00 0.00 0.00 37 1010.3
20260507212005 57 328 2.0 13.0 0.00 0.00 0.00 35 1010.3
20260507211505 57 278 2.0 17.0 0.00 0.00 0.00 35 1010.3
20260507211004 56 224 1.0 16.0 0.00 0.00 0.00 36 1010.3
20260507210006 56 297 0.0 9.0 0.00 0.00 0.00 37 1010.5
20260507205005 55 275 0.0 8.0 0.00 0.00 0.00 37 1010.6